Content
SEND FEEDBACK

Daily
Averages
Monthly
Summary
Grenada

SAINT GEORGE'S, GRENADA


Home > Caribbean > Grenada
Elevation: 23 feet     Latitude: 12 01N     Longitude: 061 48W

WEATHER
 
SELECT A DAY
Number of Records: 153,875;   Date Range: 6/30/96 - 8/31/14
 
SHARE

PRINT THIS DATA

[ ← Previous Day ]
WEATHER ALMANAC - JULY 11, 2013
[ Next Day → ]
[ °C ]   °F
Weather ElementAverageHighLow
Temperature83.6 °F87.8 °F (4:00 pm)80.6 °F (1:00 am)
Dewpoint76 °F78.8 °F (9:00 am)75 °F (8:00 pm)
Humidity76.3 %84 % (1:00 am)63 % (11:00 am)
Barometer29.96 in29.99 in (5:00 am)29.92 in (3:00 pm)
Wind Speed11.5 mph19.6 mph (1:00 pm)
Weather ElementAverage
Visibility6.9 mi
Wind DirectionE (93.4 °)

Weather ElementTotal
Precipitation---
Cooling Degree Days19.2 (Base 65)
Growing Degree Days34.2 (Base 50)
Averaged from 32 records on July 11, 2013
WEATHER CONDITIONS BREAKOUT
WIND DIRECTION BREAKOUT
WEATHER BY HOUR - JULY 11, 2013
[ °C ]   °F
Local TimeTemperatureDewpointHumidityBarometerVisibilityWind DirectionWind SpeedGust SpeedPrecipitationEventsConditions
1:00 AM80.6 °F75.2 °F84 %29.98 in6.2 miENE (70°)11.5 mphPartly Cloudy
2:00 AM81.0 °F76.0 °F80 %29.97 in6.0 miEast (90°)9.2 mphWidespread Dust
2:00 AM80.6 °F75.2 °F84 %29.95 in6.2 miEast (90°)9.2 mphPartly Cloudy
3:00 AM80.6 °F75.2 °F84 %29.95 in6.2 miEast (100°)9.2 mphPartly Cloudy
4:00 AM80.6 °F75.2 °F84 %29.95 in6.2 miEast (80°)11.5 mphPartly Cloudy
5:00 AM83.0 °F77.0 °F76 %29.99 in6.0 miEast (100°)13.8 mphWidespread Dust
5:00 AM80.6 °F75.2 °F84 %29.95 in6.2 miEast (80°)9.2 mphPartly Cloudy
6:00 AM80.6 °F75.2 °F84 %29.98 in6.2 miEast (80°)8.1 mphPartly Cloudy
6:00 AM83.0 °F77.0 °F76 %29.99 in6.0 miEast (100°)13.8 mphWidespread Dust
7:00 AM82.4 °F77.0 °F84 %29.98 in5.6 miEast (90°)8.1 mphPartly Cloudy
8:00 AM83.0 °F77.0 °F76 %29.99 in6.0 miEast (100°)13.8 mphWidespread Dust
8:00 AM84.2 °F77.0 °F79 %29.98 in6.2 miEast (100°)13.8 mphPartly Cloudy
9:00 AM86.0 °F78.8 °F79 %29.98 in6.2 miESE (110°)15.0 mphPartly Cloudy
10:00 AM86.0 °F77.0 °F74 %29.98 in6.2 miESE (110°)17.3 mphPartly Cloudy
11:00 AM87.0 °F76.0 °F63 %29.95 in10.0 miESE (120°)15.0 mphWidespread Dust
11:00 AM86.0 °F75.2 °F70 %29.98 in6.2 miESE (120°)17.3 mphPartly Cloudy
12:00 PM86.0 °F77.0 °F74 %29.98 in6.2 miSE (130°)17.3 mphPartly Cloudy
12:00 PM87.0 °F76.0 °F63 %29.95 in10.0 miESE (120°)15.0 mphWidespread Dust
1:00 PM87.0 °F76.0 °F63 %29.95 in10.0 miESE (120°)15.0 mphWidespread Dust
1:00 PM86.0 °F77.0 °F74 %29.95 in6.2 miESE (120°)19.6 mphPartly Cloudy
2:00 PM87.0 °F76.0 °F63 %29.95 in10.0 miESE (120°)15.0 mphWidespread Dust
2:00 PM86.0 °F77.0 °F74 %29.95 in6.2 miESE (120°)15.0 mphScattered Clouds
3:00 PM86.0 °F75.2 °F70 %29.92 in6.2 miESE (120°)15.0 mphPartly Cloudy
4:00 PM87.8 °F77.0 °F70 %29.92 in6.2 miEast (90°)11.5 mphPartly Cloudy
5:00 PM86.0 °F75.2 °F70 %29.92 in6.2 miEast (80°)11.5 mphPartly Cloudy
6:00 PM84.2 °F75.2 °F74 %29.92 in6.2 miEast (90°)11.5 mphPartly Cloudy
7:00 PM82.4 °F75.2 °F79 %29.92 in6.2 miEast (80°)5.8 mphPartly Cloudy
8:00 PM82.0 °F75.0 °F75 %29.93 in10.0 miEast (80°)6.9 mphWidespread Dust
9:00 PM80.6 °F75.2 °F84 %29.95 in6.2 miVariable2.3 mphPartly Cloudy
10:00 PM80.6 °F75.2 °F84 %29.95 in6.2 miCalmPartly Cloudy
11:00 PM81.0 °F76.0 °F80 %29.97 in10.0 miEast (90°)5.8 mphWidespread Dust
11:00 PM80.6 °F75.2 °F84 %29.95 in6.2 miEast (90°)5.8 mphPartly Cloudy
Hourly data recorded from TGPY, located miles away from Saint George's, Grenada







STORIES FROM OUR PARTNERS